Weather History for Duluth, MN

Change the Weather History Date:

Sunday, March 17, 2013

  Actual Average Record
Temperature  
Mean Temperature 5 °F 26 °F  
Max Temperature 23 °F 35 °F 75 °F (2012)
Min Temperature -13 °F 18 °F -15 °F (1941)
Degree Days  
Heating Degree Days 60 39  
Month to date heating degree days 785 713  
Since 1 July heating degree days 7293 7580  
Cooling Degree Days 0 0  
Month to date cooling degree days 0 0  
Year to date cooling degree days 0 0  
Moisture  
Dew Point -1 °F    
Average Humidity 65    
Maximum Humidity 78    
Minimum Humidity 51    
Precipitation  
Precipitation T in 0.05 in 1.72 in (1965)
Month to date precipitation 1.25 0.76  
Year to date precipitation 3.80 2.53  
Snow  
Snow T in 0.40 in 17.20 in (1965)
Month to date snowfall 20.3 8.4  
Since 1 July snowfall 73.1 74.0  
Snow Depth 23.00 in    
Sea Level Pressure  
Sea Level Pressure 30.21 in    
Wind  
Wind Speed 9 mph (East)    
Max Wind Speed 16 mph    
Max Gust Speed 20 mph    
Visibility 10 miles    
Events Snow    
T = Trace of Precipitation, MM = Missing Value Source: NWS Daily Summary

Daily Weather History Graph

Daily Weather History Graph

Search for Another Location

Airport:

Trip Planner

Search our weather history database for the weather conditions in past years. The results will help you decide how hot, cold, wet, or windy it might be!

Date:

Astronomy

Mar. 17, 2013 Rise Set
Actual Time 7:17 AM CDT 7:17 PM CDT
Civil Twilight 6:46 AM CDT 7:47 PM CDT
Nautical Twilight 6:11 AM CDT 8:23 PM CDT
Astronomical Twilight 5:35 AM CDT 8:59 PM CDT
Moon 10:09 AM CDT (3/17) 12:45 AM CDT (3/17)
Length of Visible Light 13h 00m
Length of Day
12h 00m
Waxing Crescent, 31% of the Moon is Illuminated
Mar 17
Waxing Crescent
Mar 19
First Quarter
Mar 27
Full
Apr 2
Last Quarter
Apr 10
New

Hourly Weather History & Observations

Time (CDT) Temp. Windchill Dew Point Humidity Pressure Visibility Wind Dir Wind Speed Gust Speed Precip Events Conditions
12:55 AM 1.9 °F -5.6 °F -6.0 °F 69% 30.31 in 10.0 mi NW 3.5 mph - N/A   Clear
1:55 AM -0.0 °F -7.9 °F -8.0 °F 69% 30.32 in 10.0 mi NW 3.5 mph - N/A   Clear
2:55 AM -2.0 °F -12.2 °F -9.0 °F 72% 30.32 in 10.0 mi NNW 4.6 mph - N/A   Clear
3:55 AM -2.9 °F -13.3 °F -9.0 °F 75% 30.32 in 10.0 mi North 4.6 mph - N/A   Clear
4:55 AM -8.0 °F -16.9 °F -13.0 °F 79% 30.32 in 10.0 mi NNE 3.5 mph - N/A   Clear
5:55 AM -5.1 °F -15.8 °F -11.0 °F 76% 30.32 in 10.0 mi NE 4.6 mph - N/A   Clear
6:55 AM -7.1 °F -18.1 °F -14.1 °F 72% 30.32 in 10.0 mi NE 4.6 mph - N/A   Clear
7:55 AM -11.9 °F -23.8 °F -16.1 °F 82% 30.33 in 10.0 mi NNE 4.6 mph - N/A   Mostly Cloudy
8:55 AM -0.9 °F -8.9 °F -8.0 °F 72% 30.30 in 9.0 mi ESE 3.5 mph - 0.00 in Snow Light Snow
9:55 AM 8.1 °F -8.4 °F 1.0 °F 73% 30.28 in 10.0 mi SE 13.8 mph - 0.00 in   Partly Cloudy
10:55 AM 10.0 °F -4.5 °F -0.0 °F 64% 30.29 in 10.0 mi SE 11.5 mph - N/A   Partly Cloudy
11:55 AM 12.0 °F -2.0 °F -0.0 °F 59% 30.27 in 10.0 mi ESE 11.5 mph - N/A   Partly Cloudy
12:55 PM 14.0 °F 0.5 °F 1.0 °F 56% 30.25 in 10.0 mi ESE 11.5 mph - N/A   Mostly Cloudy
1:55 PM 16.0 °F 4.4 °F 1.9 °F 54% 30.22 in 10.0 mi SE 9.2 mph - N/A   Mostly Cloudy
2:55 PM 18.0 °F 5.4 °F 3.9 °F 54% 30.17 in 10.0 mi ESE 11.5 mph - N/A   Mostly Cloudy
3:55 PM 19.0 °F 8.2 °F 5.0 °F 54% 30.14 in 10.0 mi East 9.2 mph - N/A   Mostly Cloudy
4:55 PM 19.0 °F 6.1 °F 6.1 °F 57% 30.11 in 10.0 mi East 12.7 mph - N/A   Scattered Clouds
5:55 PM 19.0 °F 6.8 °F 7.0 °F 59% 30.09 in 10.0 mi East 11.5 mph - N/A   Mostly Cloudy
6:55 PM 19.0 °F 8.2 °F 8.1 °F 62% 30.09 in 10.0 mi East 9.2 mph - N/A   Mostly Cloudy
7:55 PM 19.0 °F 8.2 °F 10.0 °F 68% 30.07 in 10.0 mi East 9.2 mph - N/A   Overcast
8:55 PM 21.9 °F 11.7 °F 12.0 °F 66% 30.03 in 10.0 mi ESE 9.2 mph - N/A   Overcast
9:55 PM 21.0 °F 8.6 °F 10.9 °F 65% 30.01 in 10.0 mi ESE 12.7 mph - N/A   Overcast
10:55 PM 19.9 °F 7.3 °F 10.0 °F 65% 29.98 in 10.0 mi ESE 12.7 mph - N/A   Overcast
11:55 PM 21.0 °F 8.6 °F 8.1 °F 57% 29.95 in 10.0 mi SE 12.7 mph - N/A   Overcast